CHH7318 ZGHA-ZJHK

Flight info

Callsign CHH7318
Flight time 1h 57m
Altitude 30100
Route OLT9X OLTUS R343 LBN W159 BHY W70 NYB
Aircraft A20N/M-SDE2E3FGHIRWXY/LB1

Departure

Time 2026-04-28 22:05
Airport Changsha Huanghua International Airport (ZGHA)

Arrival

Time 2026-04-29 00:02
Airport Haikou Meilan International Airport (ZJHK)
Time Latitude Longitude Altitude Speed Heading
2026-04-28 21:37 28.19709 113.21508 228 ft 0 kts 280°
2026-04-28 21:55 28.19707 113.21520 228 ft 2 kts 279°
2026-04-28 21:55 28.19704 113.21537 228 ft 2 kts 279°
2026-04-28 21:55 28.19702 113.21553 228 ft 2 kts 279°
2026-04-28 21:55 28.19699 113.21570 228 ft 2 kts 279°
2026-04-28 21:56 28.19697 113.21586 228 ft 2 kts 279°
2026-04-28 21:56 28.19694 113.21603 228 ft 2 kts 279°
2026-04-28 21:56 28.19692 113.21613 228 ft 2 kts 274°
2026-04-28 21:56 28.19696 113.21629 228 ft 2 kts 233°
2026-04-28 21:57 28.19707 113.21639 228 ft 2 kts 199°
2026-04-28 21:57 28.19716 113.21641 228 ft 0 kts 179°
2026-04-28 21:57 28.19723 113.21641 228 ft 0 kts 176°
2026-04-28 21:59 28.19722 113.21641 227 ft 0 kts 176°
2026-04-28 22:00 28.19670 113.21644 227 ft 12 kts 177°
2026-04-28 22:00 28.19577 113.21649 227 ft 15 kts 176°
2026-04-28 22:00 28.19438 113.21658 228 ft 14 kts 184°
2026-04-28 22:00 28.19335 113.21652 227 ft 15 kts 176°
2026-04-28 22:01 28.19205 113.21660 228 ft 21 kts 177°
2026-04-28 22:01 28.19047 113.21670 228 ft 24 kts 176°
2026-04-28 22:01 28.18867 113.21682 227 ft 27 kts 177°
2026-04-28 22:01 28.18686 113.21693 227 ft 25 kts 177°
2026-04-28 22:02 28.18586 113.21766 228 ft 17 kts 100°
2026-04-28 22:02 28.18488 113.21815 227 ft 16 kts 176°
2026-04-28 22:02 28.18368 113.21822 228 ft 17 kts 177°
2026-04-28 22:02 28.18248 113.21830 228 ft 17 kts 177°
2026-04-28 22:03 28.18126 113.21838 227 ft 11 kts 175°
2026-04-28 22:03 28.18092 113.21899 227 ft 10 kts 90°
2026-04-28 22:03 28.18097 113.21984 228 ft 10 kts 79°
2026-04-28 22:03 28.18123 113.22026 228 ft 0 kts 356°
2026-04-28 22:04 28.18232 113.22019 228 ft 47 kts 357°
2026-04-28 22:04 28.18796 113.21983 228 ft 112 kts 356°
2026-04-28 22:04 28.19753 113.21924 310 ft 154 kts 356°
2026-04-28 22:05 28.20846 113.21873 799 ft 159 kts 358°
2026-04-28 22:05 28.21952 113.21796 1442 ft 161 kts 358°
2026-04-28 22:05 28.23057 113.21719 2157 ft 159 kts 359°
2026-04-28 22:05 28.24141 113.21593 2762 ft 159 kts 359°
2026-04-28 22:06 28.25278 113.21532 3140 ft 173 kts
2026-04-28 22:06 28.26540 113.21484 3552 ft 186 kts
2026-04-28 22:06 28.27840 113.21422 4132 ft 190 kts
2026-04-28 22:06 28.29167 113.21352 4739 ft 193 kts
2026-04-28 22:07 28.30546 113.21271 5228 ft 204 kts
2026-04-28 22:07 28.32030 113.21188 5610 ft 223 kts
2026-04-28 22:07 28.33595 113.21093 6336 ft 228 kts
2026-04-28 22:07 28.35189 113.20988 7088 ft 232 kts
2026-04-28 22:08 28.36816 113.21008 7700 ft 239 kts 15°
2026-04-28 22:08 28.38286 113.21908 8273 ft 250 kts 47°
2026-04-28 22:08 28.39075 113.23684 8840 ft 266 kts 76°
2026-04-28 22:08 28.39184 113.25843 9400 ft 281 kts 93°
2026-04-28 22:09 28.39011 113.28087 10039 ft 288 kts 89°
2026-04-28 22:09 28.38936 113.30335 10845 ft 287 kts 89°
2026-04-28 22:09 28.38726 113.32520 11730 ft 282 kts 109°
2026-04-28 22:09 28.37638 113.34358 12366 ft 283 kts 144°
2026-04-28 22:10 28.35873 113.35280 12706 ft 289 kts 176°
2026-04-28 22:10 28.33835 113.35243 13067 ft 299 kts 188°
2026-04-28 22:10 28.31688 113.35033 13382 ft 317 kts 186°
2026-04-28 22:10 28.29423 113.34919 13672 ft 334 kts 188°
2026-04-28 22:11 28.27142 113.34272 13939 ft 343 kts 209°
2026-04-28 22:11 28.25163 113.32710 14240 ft 353 kts 228°
2026-04-28 22:11 28.23779 113.30399 14487 ft 363 kts 248°
2026-04-28 22:11 28.23111 113.27604 14801 ft 373 kts 259°
2026-04-28 22:12 28.22534 113.24747 15296 ft 378 kts 256°
2026-04-28 22:12 28.21704 113.21922 15887 ft 380 kts 249°
2026-04-28 22:12 28.20624 113.19189 16458 ft 382 kts 244°
2026-04-28 22:12 28.19340 113.16517 17020 ft 384 kts 242°
2026-04-28 22:13 28.18050 113.13915 17541 ft 385 kts 242°
2026-04-28 22:13 28.16733 113.11243 18046 ft 387 kts 244°
2026-04-28 22:13 28.15644 113.08474 18526 ft 388 kts 250°
2026-04-28 22:13 28.14847 113.05532 18991 ft 390 kts 256°
2026-04-28 22:14 28.14353 113.02525 19456 ft 392 kts 261°
2026-04-28 22:14 28.13976 112.99468 19910 ft 395 kts 263°
2026-04-28 22:14 28.13744 112.96355 20344 ft 398 kts 266°
2026-04-28 22:14 28.13687 112.93263 20777 ft 400 kts 269°
2026-04-28 22:15 28.13801 112.90112 21208 ft 402 kts 271°
2026-04-28 22:15 28.13980 112.86933 21593 ft 405 kts 272°
2026-04-28 22:15 28.14167 112.83756 22002 ft 407 kts 271°
2026-04-28 22:15 28.14355 112.80563 22404 ft 408 kts 271°
2026-04-28 22:16 28.14541 112.77371 22770 ft 411 kts 271°
2026-04-28 22:16 28.14729 112.74120 23188 ft 412 kts 271°
2026-04-28 22:16 28.14915 112.70917 23583 ft 413 kts 271°
2026-04-28 22:16 28.15103 112.67656 23943 ft 415 kts 271°
2026-04-28 22:17 28.15287 112.64417 24408 ft 414 kts 271°
2026-04-28 22:17 28.15472 112.61182 24978 ft 411 kts 271°
2026-04-28 22:17 28.15655 112.58005 25534 ft 407 kts 270°
2026-04-28 22:17 28.15836 112.54795 26016 ft 406 kts 270°
2026-04-28 22:18 28.16013 112.51638 26476 ft 405 kts 270°
2026-04-28 22:18 28.16189 112.48460 26952 ft 403 kts 270°
2026-04-28 22:18 28.16363 112.45337 27429 ft 401 kts 269°
2026-04-28 22:18 28.16539 112.42172 27869 ft 400 kts 269°
2026-04-28 22:19 28.16710 112.39047 28299 ft 399 kts 269°
2026-04-28 22:19 28.16809 112.35938 28726 ft 394 kts 263°
2026-04-28 22:19 28.16382 112.32933 29074 ft 389 kts 251°
2026-04-28 22:19 28.15412 112.30096 29483 ft 386 kts 241°
2026-04-28 22:20 28.13961 112.27528 29820 ft 387 kts 232°
2026-04-28 22:20 28.12075 112.25327 30096 ft 391 kts 221°
2026-04-28 22:20 28.09894 112.23454 30205 ft 393 kts 219°
2026-04-28 22:21 28.05389 112.19927 30208 ft 395 kts 214°
2026-04-28 22:21 28.00718 112.16685 30228 ft 396 kts 214°
2026-04-28 22:22 27.96015 112.13428 30226 ft 395 kts 215°
2026-04-28 22:22 27.91343 112.10163 30212 ft 395 kts 214°
2026-04-28 22:23 27.86651 112.06875 30208 ft 396 kts 215°
2026-04-28 22:23 27.81987 112.03611 30211 ft 396 kts 214°
2026-04-28 22:24 27.77294 112.00334 30204 ft 397 kts 214°
2026-04-28 22:24 27.72590 111.97056 30209 ft 397 kts 214°
2026-04-28 22:25 27.67878 111.93772 30203 ft 397 kts 215°
2026-04-28 22:25 27.63196 111.90510 30207 ft 397 kts 214°
2026-04-28 22:26 27.58471 111.87217 30200 ft 398 kts 214°
2026-04-28 22:26 27.53751 111.83933 30197 ft 398 kts 214°
2026-04-28 22:27 27.49065 111.80677 30189 ft 398 kts 214°
2026-04-28 22:27 27.44321 111.77392 30190 ft 399 kts 214°
2026-04-28 22:28 27.39589 111.74115 30192 ft 398 kts 214°
2026-04-28 22:28 27.34888 111.70858 30194 ft 398 kts 214°
2026-04-28 22:29 27.30145 111.67574 30202 ft 399 kts 214°
2026-04-28 22:29 27.25415 111.64307 30207 ft 399 kts 214°
2026-04-28 22:30 27.20682 111.61036 30205 ft 399 kts 214°
2026-04-28 22:30 27.15951 111.57793 30212 ft 399 kts 213°
2026-04-28 22:31 27.11150 111.54639 30205 ft 400 kts 213°
2026-04-28 22:31 27.06367 111.51497 30209 ft 399 kts 213°
2026-04-28 22:32 27.01572 111.48344 30205 ft 400 kts 213°
2026-04-28 22:32 26.96760 111.45174 30206 ft 400 kts 213°
2026-04-28 22:33 26.91981 111.42013 30207 ft 400 kts 214°
2026-04-28 22:33 26.87297 111.38605 30203 ft 400 kts 216°
2026-04-28 22:34 26.82652 111.35202 30205 ft 401 kts 216°
2026-04-28 22:34 26.77986 111.31779 30205 ft 402 kts 215°
2026-04-28 22:35 26.73315 111.28353 30196 ft 402 kts 216°
2026-04-28 22:35 26.68628 111.24917 30200 ft 401 kts 215°
2026-04-28 22:36 26.63986 111.21517 30196 ft 401 kts 215°
2026-04-28 22:36 26.59315 111.18100 30199 ft 401 kts 215°
2026-04-28 22:37 26.54563 111.14772 30197 ft 404 kts 213°
2026-04-28 22:37 26.49768 111.11520 30193 ft 403 kts 213°
2026-04-28 22:38 26.44982 111.08269 30192 ft 404 kts 214°
2026-04-28 22:38 26.40171 111.04996 30191 ft 404 kts 213°
2026-04-28 22:39 26.35380 111.01733 30190 ft 404 kts 213°
2026-04-28 22:39 26.30591 110.98473 30193 ft 403 kts 213°
2026-04-28 22:40 26.25795 110.95213 30193 ft 404 kts 213°
2026-04-28 22:40 26.21001 110.91955 30183 ft 404 kts 213°
2026-04-28 22:41 26.16183 110.88686 30186 ft 404 kts 213°
2026-04-28 22:41 26.11357 110.85409 30187 ft 405 kts 213°
2026-04-28 22:42 26.06547 110.82151 30180 ft 406 kts 213°
2026-04-28 22:42 26.01722 110.78883 30182 ft 406 kts 213°
2026-04-28 22:43 25.96902 110.75614 30199 ft 407 kts 214°
2026-04-28 22:43 25.92068 110.72334 30197 ft 407 kts 213°
2026-04-28 22:44 25.87241 110.69064 30193 ft 408 kts 213°
2026-04-28 22:44 25.82388 110.65775 30180 ft 409 kts 213°
2026-04-28 22:45 25.77528 110.62488 30179 ft 409 kts 213°
2026-04-28 22:45 25.72671 110.59179 30176 ft 409 kts 214°
2026-04-28 22:46 25.67856 110.55830 30176 ft 409 kts 214°
2026-04-28 22:46 25.63024 110.52470 30168 ft 411 kts 214°
2026-04-28 22:47 25.58190 110.49119 30174 ft 409 kts 214°
2026-04-28 22:47 25.53380 110.45705 30167 ft 410 kts 215°
2026-04-28 22:48 25.48629 110.42177 30165 ft 411 kts 216°
2026-04-28 22:48 25.43872 110.38663 30155 ft 412 kts 215°
2026-04-28 22:49 25.39117 110.35143 30155 ft 412 kts 216°
2026-04-28 22:49 25.34366 110.31606 30152 ft 412 kts 215°
2026-04-28 22:50 25.29616 110.28069 30138 ft 413 kts 215°
2026-04-28 22:50 25.24855 110.24526 30134 ft 413 kts 215°
2026-04-28 22:51 25.20050 110.20961 30128 ft 414 kts 215°
2026-04-28 22:51 25.15272 110.17403 30125 ft 414 kts 215°
2026-04-28 22:52 25.10516 110.13856 30126 ft 415 kts 215°
2026-04-28 22:52 25.05743 110.10299 30120 ft 415 kts 215°
2026-04-28 22:53 25.00945 110.06724 30120 ft 416 kts 215°
2026-04-28 22:53 24.96145 110.03153 30115 ft 416 kts 215°
2026-04-28 22:54 24.91329 109.99571 30111 ft 417 kts 216°
2026-04-28 22:54 24.86550 109.96021 30110 ft 417 kts 216°
2026-04-28 22:55 24.81723 109.92436 30111 ft 417 kts 216°
2026-04-28 22:55 24.76918 109.88871 30103 ft 418 kts 216°
2026-04-28 22:56 24.72069 109.85275 30097 ft 419 kts 215°
2026-04-28 22:56 24.67235 109.81697 30096 ft 419 kts 216°
2026-04-28 22:57 24.62406 109.78110 30092 ft 419 kts 216°
2026-04-28 22:57 24.57568 109.74512 30086 ft 420 kts 216°
2026-04-28 22:58 24.52744 109.70926 30086 ft 420 kts 216°
2026-04-28 22:58 24.47895 109.67320 30083 ft 421 kts 216°
2026-04-28 22:59 24.43068 109.63734 30084 ft 420 kts 216°
2026-04-28 22:59 24.38211 109.60135 30083 ft 421 kts 216°
2026-04-28 23:00 24.33352 109.56557 30083 ft 422 kts 216°
2026-04-28 23:00 24.28455 109.52953 30082 ft 423 kts 216°
2026-04-28 23:01 24.23573 109.49360 30081 ft 423 kts 216°
2026-04-28 23:01 24.18677 109.45755 30077 ft 424 kts 216°
2026-04-28 23:02 24.13793 109.42165 30078 ft 423 kts 216°
2026-04-28 23:02 24.08891 109.38563 30077 ft 423 kts 216°
2026-04-28 23:03 24.04012 109.34982 30079 ft 423 kts 215°
2026-04-28 23:03 23.99116 109.31390 30083 ft 424 kts 215°
2026-04-28 23:04 23.94236 109.27811 30079 ft 425 kts 215°
2026-04-28 23:04 23.86869 109.22414 30084 ft 425 kts 215°
2026-04-28 23:05 23.81932 109.18806 30084 ft 425 kts 215°
2026-04-28 23:05 23.76529 109.16151 30079 ft 431 kts 197°
2026-04-28 23:06 23.70533 109.15505 30083 ft 438 kts 179°
2026-04-28 23:06 23.64464 109.16239 30078 ft 439 kts 176°
2026-04-28 23:07 23.58348 109.17064 30071 ft 440 kts 176°
2026-04-28 23:07 23.52274 109.17876 30071 ft 441 kts 176°
2026-04-28 23:08 23.46188 109.18683 30064 ft 441 kts 176°
2026-04-28 23:08 23.40074 109.19488 30064 ft 443 kts 176°
2026-04-28 23:09 23.33900 109.20302 30062 ft 452 kts 176°
2026-04-28 23:09 23.27554 109.21133 30060 ft 467 kts 175°
2026-04-28 23:10 23.21072 109.21986 30055 ft 470 kts 175°
2026-04-28 23:10 23.14569 109.22843 30051 ft 471 kts 175°
2026-04-28 23:11 23.08028 109.23701 30042 ft 471 kts 175°
2026-04-28 23:11 23.01507 109.24555 30040 ft 472 kts 175°
2026-04-28 23:12 22.94979 109.25411 30039 ft 472 kts 175°
2026-04-28 23:12 22.88494 109.26259 30036 ft 472 kts 175°
2026-04-28 23:13 22.81948 109.27113 30033 ft 472 kts 175°
2026-04-28 23:13 22.75410 109.27966 30028 ft 471 kts 175°
2026-04-28 23:14 22.68924 109.28812 30024 ft 472 kts 175°
2026-04-28 23:14 22.62360 109.29682 30021 ft 472 kts 175°
2026-04-28 23:15 22.55849 109.30542 30022 ft 472 kts 175°
2026-04-28 23:15 22.49309 109.31404 30026 ft 472 kts 175°
2026-04-28 23:16 22.42791 109.32262 30029 ft 472 kts 175°
2026-04-28 23:16 22.36248 109.33120 30023 ft 472 kts 175°
2026-04-28 23:17 22.29736 109.33974 30018 ft 473 kts 175°
2026-04-28 23:17 22.23193 109.34830 30013 ft 472 kts 175°
2026-04-28 23:18 22.16689 109.35678 30012 ft 471 kts 175°
2026-04-28 23:18 22.10170 109.36526 30008 ft 472 kts 175°
2026-04-28 23:19 22.03614 109.37379 30000 ft 473 kts 175°
2026-04-28 23:19 21.97081 109.38225 29998 ft 473 kts 175°
2026-04-28 23:20 21.90518 109.39076 29995 ft 473 kts 175°
2026-04-28 23:20 21.84002 109.39919 29997 ft 472 kts 175°
2026-04-28 23:21 21.77437 109.40767 30001 ft 472 kts 175°
2026-04-28 23:21 21.70922 109.41606 30003 ft 472 kts 175°
2026-04-28 23:22 21.64377 109.42498 30005 ft 473 kts 172°
2026-04-28 23:22 21.57973 109.44295 30002 ft 478 kts 162°
2026-04-28 23:23 21.51949 109.47298 29997 ft 483 kts 153°
2026-04-28 23:23 21.46088 109.50930 29999 ft 483 kts 152°
2026-04-28 23:24 21.40293 109.54544 29995 ft 484 kts 152°
2026-04-28 23:24 21.34331 109.57941 29989 ft 481 kts 159°
2026-04-28 23:25 21.28020 109.60222 29991 ft 478 kts 169°
2026-04-28 23:25 21.21506 109.61403 29986 ft 475 kts 174°
2026-04-28 23:26 21.14930 109.62337 29984 ft 475 kts 174°
2026-04-28 23:26 21.08345 109.63275 29984 ft 477 kts 174°
2026-04-28 23:27 21.01777 109.64223 29989 ft 477 kts 174°
2026-04-28 23:27 20.95159 109.65179 29990 ft 477 kts 174°
2026-04-28 23:28 20.88610 109.66128 29991 ft 476 kts 175°
2026-04-28 23:28 20.82034 109.67078 29967 ft 476 kts 175°
2026-04-28 23:29 20.78717 109.67555 29401 ft 480 kts 175°
2026-04-28 23:29 20.75428 109.68033 28740 ft 476 kts 175°
2026-04-28 23:29 20.72122 109.68510 27804 ft 477 kts 175°
2026-04-28 23:29 20.68858 109.68978 26818 ft 478 kts 175°
2026-04-28 23:30 20.65576 109.69452 26162 ft 463 kts 175°
2026-04-28 23:30 20.62499 109.69897 25832 ft 435 kts 175°
2026-04-28 23:30 20.59565 109.70324 25566 ft 408 kts 175°
2026-04-28 23:30 20.56843 109.70717 25327 ft 390 kts 175°
2026-04-28 23:31 20.54169 109.71099 25095 ft 383 kts 175°
2026-04-28 23:31 20.51556 109.71639 24849 ft 386 kts 166°
2026-04-28 23:31 20.49069 109.72737 24574 ft 390 kts 154°
2026-04-28 23:31 20.46784 109.74380 24075 ft 394 kts 144°
2026-04-28 23:32 20.44677 109.76205 23625 ft 393 kts 143°
2026-04-28 23:32 20.42578 109.78062 23188 ft 391 kts 143°
2026-04-28 23:32 20.40477 109.79919 22746 ft 389 kts 143°
2026-04-28 23:32 20.38402 109.81739 22306 ft 388 kts 144°
2026-04-28 23:33 20.36314 109.83559 21862 ft 386 kts 144°
2026-04-28 23:33 20.34237 109.85365 21413 ft 385 kts 144°
2026-04-28 23:33 20.32168 109.87161 20969 ft 383 kts 144°
2026-04-28 23:33 20.30111 109.88943 20530 ft 382 kts 144°
2026-04-28 23:34 20.28071 109.90710 20094 ft 380 kts 144°
2026-04-28 23:34 20.26019 109.92487 19653 ft 378 kts 144°
2026-04-28 23:34 20.23985 109.94248 19187 ft 377 kts 144°
2026-04-28 23:34 20.21961 109.96001 18738 ft 375 kts 144°
2026-04-28 23:35 20.19919 109.97768 18284 ft 373 kts 144°
2026-04-28 23:35 20.17915 109.99501 17852 ft 371 kts 144°
2026-04-28 23:35 20.15912 110.01234 17413 ft 369 kts 144°
2026-04-28 23:35 20.13946 110.02934 16982 ft 367 kts 144°
2026-04-28 23:36 20.11956 110.04652 16555 ft 364 kts 144°
2026-04-28 23:36 20.10010 110.06332 16155 ft 361 kts 144°
2026-04-28 23:36 20.08067 110.08011 15747 ft 358 kts 144°
2026-04-28 23:36 20.06137 110.09678 15341 ft 355 kts 144°
2026-04-28 23:37 20.04232 110.11320 14936 ft 352 kts 144°
2026-04-28 23:37 20.02484 110.13128 14501 ft 355 kts 127°
2026-04-28 23:37 20.01557 110.15556 14083 ft 359 kts 99°
2026-04-28 23:37 20.01570 110.18191 13700 ft 357 kts 86°
2026-04-28 23:38 20.01762 110.20796 13301 ft 355 kts 86°
2026-04-28 23:38 20.01938 110.23415 12903 ft 352 kts 87°
2026-04-28 23:38 20.02091 110.26002 12496 ft 350 kts 88°
2026-04-28 23:38 20.02228 110.28555 12098 ft 347 kts 88°
2026-04-28 23:39 20.02359 110.31123 11693 ft 345 kts 88°
2026-04-28 23:39 20.02484 110.33653 11299 ft 343 kts 88°
2026-04-28 23:39 20.02606 110.36155 10880 ft 342 kts 88°
2026-04-28 23:39 20.02729 110.38705 10466 ft 341 kts 88°
2026-04-28 23:40 20.02848 110.41187 10174 ft 334 kts 88°
2026-04-28 23:40 20.02962 110.43584 10064 ft 322 kts 88°
2026-04-28 23:40 20.03073 110.45933 9856 ft 314 kts 88°
2026-04-28 23:40 20.03182 110.48228 9494 ft 312 kts 88°
2026-04-28 23:41 20.03290 110.50523 9150 ft 310 kts 88°
2026-04-28 23:41 20.03398 110.52814 8797 ft 308 kts 88°
2026-04-28 23:41 20.03505 110.55088 8444 ft 307 kts 87°
2026-04-28 23:41 20.03619 110.57322 8106 ft 305 kts 87°
2026-04-28 23:42 20.03740 110.59565 7755 ft 303 kts 87°
2026-04-28 23:42 20.03861 110.61781 7417 ft 301 kts 87°
2026-04-28 23:42 20.03981 110.63990 7088 ft 299 kts 87°
2026-04-28 23:42 20.04100 110.66196 6751 ft 296 kts 87°
2026-04-28 23:43 20.04216 110.68366 6436 ft 294 kts 87°
2026-04-28 23:43 20.04331 110.70534 6110 ft 292 kts 87°
2026-04-28 23:43 20.04443 110.72669 5793 ft 290 kts 87°
2026-04-28 23:43 20.04554 110.74777 5705 ft 278 kts 87°
2026-04-28 23:44 20.04659 110.76763 5676 ft 263 kts 87°
2026-04-28 23:44 20.04598 110.78651 5590 ft 255 kts 109°
2026-04-28 23:44 20.03654 110.80204 5473 ft 249 kts 146°
2026-04-28 23:44 20.02096 110.80832 5179 ft 238 kts 183°
2026-04-28 23:45 20.00492 110.80631 4981 ft 229 kts 194°
2026-04-28 23:45 19.98926 110.80325 4762 ft 225 kts 193°
2026-04-28 23:45 19.97403 110.80053 4533 ft 220 kts 202°
2026-04-28 23:45 19.96159 110.79192 4267 ft 210 kts 236°
2026-04-28 23:46 19.95570 110.77795 3969 ft 208 kts 259°
2026-04-28 23:46 19.95413 110.76271 3657 ft 209 kts 269°
2026-04-28 23:46 19.95419 110.74741 3402 ft 207 kts 271°
2026-04-28 23:46 19.95449 110.73206 3111 ft 208 kts 271°
2026-04-28 23:47 19.95469 110.71692 2970 ft 204 kts 270°
2026-04-28 23:47 19.95476 110.70174 2961 ft 204 kts 270°
2026-04-28 23:47 19.95473 110.68681 2962 ft 202 kts 270°
2026-04-28 23:47 19.95467 110.67191 2962 ft 202 kts 270°
2026-04-28 23:48 19.95457 110.65685 2962 ft 202 kts 270°
2026-04-28 23:48 19.95448 110.64186 2854 ft 203 kts 270°
2026-04-28 23:48 19.95440 110.62697 2610 ft 202 kts 270°
2026-04-28 23:48 19.95433 110.61221 2410 ft 195 kts 269°
2026-04-28 23:49 19.95427 110.59823 2167 ft 184 kts 269°
2026-04-28 23:49 19.95422 110.58513 1917 ft 171 kts 269°
2026-04-28 23:49 19.95417 110.57303 1677 ft 157 kts 269°
2026-04-28 23:49 19.95406 110.56195 1480 ft 141 kts 268°
2026-04-28 23:50 19.95397 110.55190 1264 ft 132 kts 270°
2026-04-28 23:50 19.95428 110.54209 1137 ft 134 kts 272°
2026-04-28 23:50 19.95461 110.53223 1001 ft 134 kts 270°
2026-04-28 23:50 19.95466 110.52228 829 ft 135 kts 267°
2026-04-28 23:51 19.95425 110.51229 661 ft 136 kts 266°
2026-04-28 23:51 19.95402 110.50218 463 ft 136 kts 269°
2026-04-28 23:51 19.95395 110.49216 289 ft 136 kts 270°
2026-04-28 23:51 19.95384 110.48216 109 ft 136 kts 271°
2026-04-28 23:52 19.95374 110.47255 77 ft 122 kts 270°
2026-04-28 23:52 19.95348 110.46276 357 ft 144 kts 270°
2026-04-28 23:52 19.95320 110.45171 847 ft 157 kts 272°
2026-04-28 23:52 19.95555 110.44048 1590 ft 161 kts 303°
2026-04-28 23:53 19.96497 110.43490 2282 ft 168 kts 355°
2026-04-28 23:53 19.97643 110.43892 2759 ft 187 kts 31°
2026-04-28 23:53 19.98430 110.45126 2907 ft 215 kts 74°
2026-04-28 23:53 19.98569 110.46652 2907 ft 201 kts 83°
2026-04-28 23:54 19.98830 110.48043 2879 ft 181 kts 73°
2026-04-28 23:54 19.99155 110.49268 2870 ft 168 kts 72°
2026-04-28 23:54 19.99485 110.50478 2916 ft 178 kts 71°
2026-04-28 23:54 19.99832 110.51771 2921 ft 182 kts 72°
2026-04-28 23:55 20.00090 110.53097 2918 ft 183 kts 79°
2026-04-28 23:55 20.00276 110.54471 2934 ft 195 kts 80°
2026-04-28 23:55 20.00461 110.55918 2922 ft 199 kts 81°
2026-04-28 23:55 20.00651 110.57394 2916 ft 201 kts 81°
2026-04-28 23:56 20.00914 110.58850 2913 ft 201 kts 77°
2026-04-28 23:56 20.01165 110.60294 2907 ft 201 kts 78°
2026-04-28 23:56 20.01408 110.61777 2905 ft 201 kts 78°
2026-04-28 23:56 20.01506 110.63263 2890 ft 203 kts 101°
2026-04-28 23:57 20.00857 110.64548 2893 ft 202 kts 139°
2026-04-28 23:57 19.99628 110.65248 2921 ft 198 kts 163°
2026-04-28 23:57 19.98300 110.65439 2903 ft 192 kts 192°
2026-04-28 23:57 19.97118 110.64854 2919 ft 187 kts 218°
2026-04-28 23:58 19.96113 110.63953 2918 ft 186 kts 227°
2026-04-28 23:58 19.95509 110.62785 2905 ft 182 kts 258°
2026-04-28 23:58 19.95381 110.61457 2872 ft 184 kts 269°
2026-04-28 23:58 19.95411 110.60093 2629 ft 182 kts 272°
2026-04-28 23:59 19.95507 110.58795 2330 ft 170 kts 275°
2026-04-28 23:59 19.95619 110.57592 1933 ft 162 kts 275°
2026-04-28 23:59 19.95661 110.56440 1668 ft 145 kts 266°
2026-04-28 23:59 19.95588 110.55415 1374 ft 135 kts 264°
2026-04-29 00:00 19.95523 110.54444 1163 ft 131 kts 265°
2026-04-29 00:00 19.95467 110.53484 969 ft 131 kts 266°
2026-04-29 00:00 19.95453 110.52510 828 ft 132 kts 267°
2026-04-29 00:00 19.95431 110.51542 666 ft 132 kts 266°
2026-04-29 00:01 19.95397 110.50557 516 ft 132 kts 269°
2026-04-29 00:01 19.95392 110.49588 325 ft 132 kts 270°
2026-04-29 00:01 19.95386 110.48608 185 ft 133 kts 270°
2026-04-29 00:01 19.95383 110.47636 61 ft 127 kts 271°
2026-04-29 00:02 19.95377 110.46876 56 ft 78 kts 271°
2026-04-29 00:02 19.95352 110.46549 55 ft 29 kts 254°
2026-04-29 00:02 19.95300 110.46439 55 ft 11 kts 240°
2026-04-29 00:02 19.95257 110.46363 56 ft 11 kts 234°
2026-04-29 00:03 19.95214 110.46300 58 ft 9 kts 232°
2026-04-29 00:03 19.95149 110.46262 61 ft 13 kts 187°
2026-04-29 00:03 19.95093 110.46269 61 ft 7 kts 180°
2026-04-29 00:03 19.95025 110.46250 61 ft 10 kts 231°
2026-04-29 00:04 19.94994 110.46190 64 ft 7 kts 243°
2026-04-29 00:04 19.94977 110.46156 65 ft 0 kts 240°